SCP
0 0 -0 -0 0 0 0 0 0 0 0 0 0 0 0 0 0 0 0 1 0 0 0 0 0 0 0 0 0 0 -0 -0 -0 -0 -0 -0 -0 -0
0 0 0 -0 -0 -0 -0 0 0 0 0 0 0 0 0 0 0 0 0 0 0 0 -0 0 0 0 0 0 0 0 0 0 0 0 0 -0 -0 -0
0 0 0 0 0 0 0 0 0 0 0 0 0 0 0 0 0 0 0 0 0 0 0 0 0 0 0 0 0 0 0 0 0 0 0 0 0 -0
0 0 0 0 0 0 0 0 0 0 0 0 0 0 0 0 0 0 0 0 0 0 0 0 0 0 0 0 0 0 0 0 0 0 0 0 0 -0
0 0 0 0 0 0 0 0 0 0 0 0 0 0 0 0 0 0 0 0 0 0 0 0 0 0 0 0 0 0 0 0 0 0 0 0 0 0
0 0 0 0 0 0 0 0 0 0 0 0 0 0 0 0 0 0 0 0 0 0 0 0 0 0 0 0 0 0 0 0 0 0 0 0 0 0
0 0 0 0 0 0 0 0 0 0 0 0 0 0 0 0 0 0 0 0 0 0 0 0 0 0 0 0 0 0 0 0 0 0 0 0 0 0
0 0 0 0 0 0 0 0 0 0 0 0 0 0 0 0 0 0 0 0 0 0 0 0 0 0 0 0 0 0 0 0 0 0 0 0 0 0
0 0 0 0 0 0 0 0 0 0 0 0 0 0 0 0 0 0 0 0 0 0 0 0 0 0 0 0 0 0 0 0 0 0 0 0 0 0
0 0 0 0 0 0 0 0 0 0 0 0 0 0 0 0 0 0 0 0 0 0 0 0 0 0 0 0 0 0 0 0 0 0 0 0 0 0
0 0 0 0 0 0 0 0 0 0 0 0 0 0 0 0 0 0 0 0 0 0 0 0 0 0 0 0 0 0 0 0 0 0 0 0 0 0
0 0 0 0 0 0 0 0 0 0 0 0 0 0 0 0 0 0 0 0 0 0 0 0 0 0 0 -0 0 0 0 0 0 0 0 0 0 0
0 0 0 0 0 0 0 0 0 0 0 0 0 0 0 0 0 0 0 0 0 0 0 0 0 0 0 0 0 0 0 0 0 0 0 0 0 0
0 0 0 0 0 0 0 0 0 0 0 0 0 0 0 0 0 0 0 0 0 0 0 1 0 0 0 0 0 0 0 0 0 0 0 0 0 0
0 0 0 0 0 0 0 0 0 0 0 0 0 0 0 0 0 0 0 0 0 0 0 0 0 0 0 0 0 0 0 0 0 0 0 0 0 0
0 0 0 0 0 0 0 0 0 0 0 0 0 0 0 0 0 0 0 0 0 0 0 1 0 0 0 0 0 0 0 0 0 0 0 0 0 0
0 0 0 0 0 0 0 0 0 0 0 0 0 0 0 0 0 0 0 0 0 0 0 0 1 1 1 1 0 0 0 0 0 0 0 0 0 0
-0 0 0 0 0 0 0 0 0 0 0 0 0 0 0 0 0 0 0 0 0 0 0 0 0 1 1 0 0 0 0 0 0 0 0 0 0 0
-0 -0 0 0 0 0 0 0 0 0 0 0 0 0 0 0 0 0 0 0 0 0 0 0 0 0 0 0 0 0 0 0 0 0 0 0 0 0
-0 -0 -0 -0 0 0 0 0 0 0 0 0 0 0 0 0 0 0 0 0 0 0 0 0 0 0 0 0 0 0 0 0 0 0 0 0 0 0
-0 -0 -0 -0 -0 -0 -0 0 0 0 0 0 0 0 0 0 0 0 0 0 0 0 0 0 0 0 0 0 0 0 0 0 0 0 0 0 0 0
0 0 0 -0 -0 -0 -0 -0 -0 0 0 0 0 0 0 0 0 0 0 0 0 0 0 0 0 0 0 0 0 0 0 0 0 0 0 0 0 0
0 0 0 0 0 0 -0 -0 -0 -0 0 0 0 0 0 0 0 0 0 0 0 0 0 0 0 0 0 0 0 0 0 0 0 0 0 0 0 0
Wind_Speed_500mb
46 48 51 41 46 54 54 53 52 61 44 37 29 28 30 33 35 31 42 53 47 47 64 64 61 47 39 33 33 36 37 39 38 37 38 42 43 42
35 40 38 50 45 48 50 50 55 59 50 50 42 30 30 37 39 38 47 43 42 31 58 62 62 61 51 46 39 37 38 38 40 39 37 39 41 42
21 27 34 41 49 54 48 52 56 54 59 59 49 46 46 43 41 47 41 41 37 41 42 63 59 58 56 53 54 51 48 41 38 39 41 41 42 44
26 25 24 30 38 42 44 44 47 49 47 55 53 52 46 42 40 47 45 43 56 52 48 53 61 65 58 54 57 55 54 55 49 42 40 43 45 46
36 33 34 30 30 22 22 26 29 34 40 40 43 40 42 47 50 45 45 41 43 54 49 54 63 67 67 66 63 64 61 58 58 56 49 45 46 48
41 45 42 42 37 33 29 28 29 32 37 44 49 48 44 44 52 54 47 43 41 36 41 49 61 73 64 66 66 66 63 62 62 61 65 58 53 53
46 34 38 38 42 43 42 35 36 38 40 40 47 55 55 50 51 44 43 39 42 45 43 41 45 67 69 73 74 70 64 64 62 60 63 69 69 65
55 55 49 41 37 40 40 39 38 37 36 39 48 52 56 57 57 53 46 43 44 43 46 49 46 52 57 67 78 69 70 67 61 63 64 66 73 77
48 50 50 46 45 41 39 40 40 41 41 44 48 52 57 59 59 57 62 67 59 47 47 50 46 44 47 46 53 60 71 70 72 69 69 66 66 69
35 38 41 41 42 47 51 51 49 45 43 42 43 44 45 48 60 66 57 56 55 50 41 51 38 38 30 40 52 56 58 70 66 70 69 65 61 60
25 28 31 35 35 42 51 55 57 57 51 44 43 44 39 40 48 47 48 38 49 52 44 40 35 31 33 45 34 45 57 55 62 58 59 64 63 53
29 29 31 34 35 30 32 41 52 58 54 51 44 45 44 41 38 59 60 50 51 55 51 46 44 38 31 43 23 17 42 60 64 64 60 64 70 73
36 35 35 32 32 36 34 32 36 38 49 57 52 48 44 48 40 37 52 50 45 48 46 41 46 46 47 40 42 31 25 25 34 46 55 69 75 69
37 39 41 43 39 38 40 41 41 38 42 39 50 55 52 47 47 44 40 38 36 39 41 45 49 54 51 54 49 44 38 39 40 43 42 44 62 71
34 40 43 46 43 42 35 33 34 36 42 50 56 54 49 56 54 51 47 45 46 46 40 48 51 58 60 63 64 61 60 54 51 53 46 40 43 61
35 33 32 28 25 24 24 21 23 27 30 33 40 51 59 65 59 57 62 61 63 66 61 55 58 60 70 70 65 70 68 68 61 59 57 59 54 45
42 34 33 29 26 24 24 26 26 29 34 36 39 44 47 47 59 68 72 72 69 70 71 64 60 55 62 64 70 72 74 75 72 63 61 61 63 60
61 50 42 37 33 30 30 30 28 27 21 30 37 42 41 43 47 51 58 64 66 64 66 67 63 59 59 68 65 71 77 80 72 64 61 63 65 57
59 58 57 53 47 39 33 27 25 23 22 18 22 30 36 40 46 49 54 60 62 63 71 70 68 64 67 73 70 68 74 73 67 62 55 52 55 50
63 59 57 55 49 47 51 43 30 26 23 21 21 15 21 32 34 38 47 52 56 60 63 67 67 66 65 61 68 72 66 69 65 60 56 58 54 50
53 56 55 54 55 51 52 48 49 43 36 29 24 23 26 30 30 32 35 34 40 49 59 65 65 63 63 59 64 65 58 56 60 61 63 58 57 56
48 45 47 48 50 49 51 55 53 54 52 44 37 30 28 24 27 30 34 28 37 39 42 59 52 51 47 48 55 63 60 54 52 53 52 53 57 62
43 40 41 41 42 47 47 48 54 56 53 56 52 47 38 30 28 24 23 25 41 25 32 33 43 45 46 45 45 51 52 52 48 49 52 49 52 55
Wind_Direction_500mb
262 259 255 262 261 260 260 263 266 271 271 275 273 281 255 249 245 252 257 239 236 247 247 248 252 244 242 244 253 256 253 249 249 248 244 242 239 237
276 266 252 248 256 256 260 261 265 267 277 277 272 267 274 257 248 250 253 253 243 252 226 241 244 242 243 247 251 256 258 254 250 249 245 242 238 234
296 279 272 264 251 258 261 260 256 260 261 271 272 272 274 267 274 261 269 247 245 250 244 228 233 237 242 247 248 246 250 258 255 248 246 241 237 236
294 295 289 279 275 270 268 262 255 256 260 269 277 280 268 269 275 266 266 258 243 247 239 226 228 235 240 244 247 247 246 245 250 252 247 244 241 238
277 277 278 281 278 283 289 291 286 275 269 266 274 279 264 264 271 270 257 259 248 238 243 236 240 242 242 244 247 251 252 251 244 246 247 245 244 242
268 274 269 273 274 270 282 294 296 279 267 261 264 268 266 265 262 261 259 253 260 257 253 254 246 241 248 240 247 247 247 248 247 245 245 245 244 244
259 260 266 262 268 268 271 281 291 284 273 268 260 258 261 257 250 251 259 254 258 253 260 261 253 242 241 249 249 244 242 246 246 245 245 245 246 245
274 267 259 259 260 261 271 277 279 284 280 279 270 258 255 252 247 236 242 246 265 253 263 263 262 259 251 254 246 250 244 247 241 244 249 249 249 249
277 277 275 266 259 259 264 267 271 275 283 287 280 269 262 253 245 239 245 244 261 262 275 271 259 263 258 257 253 251 245 247 243 241 246 251 257 255
281 282 280 278 268 261 260 258 263 269 277 282 281 284 281 269 255 251 264 262 253 258 264 271 272 266 285 280 256 252 249 242 243 247 251 249 251 258
290 290 293 291 280 269 265 264 263 265 267 275 274 272 278 277 257 243 231 246 251 255 252 266 263 256 280 295 293 261 241 238 240 246 246 245 243 258
302 294 298 293 289 277 276 272 268 266 266 268 272 265 266 268 279 235 235 255 251 261 263 265 269 271 285 279 302 294 238 243 249 248 251 255 256 259
312 306 304 305 295 283 280 280 270 275 264 261 263 266 264 259 254 247 246 249 257 262 265 269 275 278 279 275 273 288 285 271 275 259 261 254 254 260
315 302 301 300 296 297 287 280 272 272 268 271 261 256 260 258 252 250 253 261 263 267 273 274 271 272 275 278 272 271 271 276 287 287 295 273 259 252
318 309 303 296 295 297 296 294 281 279 269 262 260 262 262 260 258 258 254 256 265 264 269 266 268 272 274 272 274 273 278 278 283 290 285 285 295 260
339 335 325 309 300 292 286 278 273 267 269 270 266 262 262 261 259 259 259 261 268 268 268 271 269 265 268 270 274 273 273 277 279 285 287 283 280 291
351 336 334 332 334 328 324 310 306 289 273 270 272 268 263 263 258 261 265 266 268 267 270 267 272 275 266 265 265 268 269 271 274 275 283 285 276 269
22 19 8 0 352 342 330 318 315 320 292 284 276 271 273 269 265 263 264 264 264 262 264 266 270 275 271 263 255 260 265 266 272 275 280 282 276 267
24 25 28 27 19 11 358 334 329 317 320 298 274 271 266 267 267 267 267 264 264 266 263 261 261 262 267 265 264 261 261 265 272 272 277 278 276 272
21 20 21 18 13 13 15 17 4 347 326 310 307 315 282 269 273 273 269 267 263 262 261 265 257 256 255 262 267 268 266 265 269 269 271 280 277 273
10 15 14 13 16 14 12 9 13 14 13 8 350 319 311 294 277 278 280 283 267 263 257 261 261 256 257 259 259 262 262 262 267 268 274 273 269 271
3 357 1 6 4 3 5 6 5 8 9 14 11 359 351 330 305 283 271 287 278 267 269 260 260 247 249 252 254 258 263 266 266 268 269 264 260 264
355 354 352 345 354 360 354 356 359 1 359 3 6 1 357 347 340 327 316 285 276 298 272 271 251 243 245 248 250 256 260 265 267 269 267 263 264 264
Wind_Speed_850mb
46 48 51 41 46 54 54 53 52 61 44 37 29 28 30 33 35 31 42 53 47 47 64 64 61 47 39 33 33 36 37 39 38 37 38 42 43 42
35 40 38 50 45 48 50 50 55 59 50 50 42 30 30 37 39 38 47 43 42 31 58 62 62 61 51 46 39 37 38 38 40 39 37 39 41 42
21 27 34 41 49 54 48 52 56 54 59 59 49 46 46 43 41 47 41 41 37 41 42 63 59 58 56 53 54 51 48 41 38 39 41 41 42 44
26 25 24 30 38 42 44 44 47 49 47 55 53 52 46 42 40 47 45 43 56 52 48 53 61 65 58 54 57 55 54 55 49 42 40 43 45 46
36 33 34 30 30 22 22 26 29 34 40 40 43 40 42 47 50 45 45 41 43 54 49 54 63 67 67 66 63 64 61 58 58 56 49 45 46 48
41 45 42 42 37 33 29 28 29 32 37 44 49 48 44 44 52 54 47 43 41 36 41 49 61 73 64 66 66 66 63 62 62 61 65 58 53 53
46 34 38 38 42 43 42 35 36 38 40 40 47 55 55 50 51 44 43 39 42 45 43 41 45 67 69 73 74 70 64 64 62 60 63 69 69 65
55 55 49 41 37 40 40 39 38 37 36 39 48 52 56 57 57 53 46 43 44 43 46 49 46 52 57 67 78 69 70 67 61 63 64 66 73 77
48 50 50 46 45 41 39 40 40 41 41 44 48 52 57 59 59 57 62 67 59 47 47 50 46 44 47 46 53 60 71 70 72 69 69 66 66 69
35 38 41 41 42 47 51 51 49 45 43 42 43 44 45 48 60 66 57 56 55 50 41 51 38 38 30 40 52 56 58 70 66 70 69 65 61 60
25 28 31 35 35 42 51 55 57 57 51 44 43 44 39 40 48 47 48 38 49 52 44 40 35 31 33 45 34 45 57 55 62 58 59 64 63 53
29 29 31 34 35 30 32 41 52 58 54 51 44 45 44 41 38 59 60 50 51 55 51 46 44 38 31 43 23 17 42 60 64 64 60 64 70 73
36 35 35 32 32 36 34 32 36 38 49 57 52 48 44 48 40 37 52 50 45 48 46 41 46 46 47 40 42 31 25 25 34 46 55 69 75 69
37 39 41 43 39 38 40 41 41 38 42 39 50 55 52 47 47 44 40 38 36 39 41 45 49 54 51 54 49 44 38 39 40 43 42 44 62 71
34 40 43 46 43 42 35 33 34 36 42 50 56 54 49 56 54 51 47 45 46 46 40 48 51 58 60 63 64 61 60 54 51 53 46 40 43 61
35 33 32 28 25 24 24 21 23 27 30 33 40 51 59 65 59 57 62 61 63 66 61 55 58 60 70 70 65 70 68 68 61 59 57 59 54 45
42 34 33 29 26 24 24 26 26 29 34 36 39 44 47 47 59 68 72 72 69 70 71 64 60 55 62 64 70 72 74 75 72 63 61 61 63 60
61 50 42 37 33 30 30 30 28 27 21 30 37 42 41 43 47 51 58 64 66 64 66 67 63 59 59 68 65 71 77 80 72 64 61 63 65 57
59 58 57 53 47 39 33 27 25 23 22 18 22 30 36 40 46 49 54 60 62 63 71 70 68 64 67 73 70 68 74 73 67 62 55 52 55 50
63 59 57 55 49 47 51 43 30 26 23 21 21 15 21 32 34 38 47 52 56 60 63 67 67 66 65 61 68 72 66 69 65 60 56 58 54 50
53 56 55 54 55 51 52 48 49 43 36 29 24 23 26 30 30 32 35 34 40 49 59 65 65 63 63 59 64 65 58 56 60 61 63 58 57 56
48 45 47 48 50 49 51 55 53 54 52 44 37 30 28 24 27 30 34 28 37 39 42 59 52 51 47 48 55 63 60 54 52 53 52 53 57 62
43 40 41 41 42 47 47 48 54 56 53 56 52 47 38 30 28 24 23 25 41 25 32 33 43 45 46 45 45 51 52 52 48 49 52 49 52 55
Wind_Direction_850mb
262 259 255 262 261 260 260 263 266 271 271 275 273 281 255 249 245 252 257 239 236 247 247 248 252 244 242 244 253 256 253 249 249 248 244 242 239 237
276 266 252 248 256 256 260 261 265 267 277 277 272 267 274 257 248 250 253 253 243 252 226 241 244 242 243 247 251 256 258 254 250 249 245 242 238 234
296 279 272 264 251 258 261 260 256 260 261 271 272 272 274 267 274 261 269 247 245 250 244 228 233 237 242 247 248 246 250 258 255 248 246 241 237 236
294 295 289 279 275 270 268 262 255 256 260 269 277 280 268 269 275 266 266 258 243 247 239 226 228 235 240 244 247 247 246 245 250 252 247 244 241 238
277 277 278 281 278 283 289 291 286 275 269 266 274 279 264 264 271 270 257 259 248 238 243 236 240 242 242 244 247 251 252 251 244 246 247 245 244 242
268 274 269 273 274 270 282 294 296 279 267 261 264 268 266 265 262 261 259 253 260 257 253 254 246 241 248 240 247 247 247 248 247 245 245 245 244 244
259 260 266 262 268 268 271 281 291 284 273 268 260 258 261 257 250 251 259 254 258 253 260 261 253 242 241 249 249 244 242 246 246 245 245 245 246 245
274 267 259 259 260 261 271 277 279 284 280 279 270 258 255 252 247 236 242 246 265 253 263 263 262 259 251 254 246 250 244 247 241 244 249 249 249 249
277 277 275 266 259 259 264 267 271 275 283 287 280 269 262 253 245 239 245 244 261 262 275 271 259 263 258 257 253 251 245 247 243 241 246 251 257 255
281 282 280 278 268 261 260 258 263 269 277 282 281 284 281 269 255 251 264 262 253 258 264 271 272 266 285 280 256 252 249 242 243 247 251 249 251 258
290 290 293 291 280 269 265 264 263 265 267 275 274 272 278 277 257 243 231 246 251 255 252 266 263 256 280 295 293 261 241 238 240 246 246 245 243 258
302 294 298 293 289 277 276 272 268 266 266 268 272 265 266 268 279 235 235 255 251 261 263 265 269 271 285 279 302 294 238 243 249 248 251 255 256 259
312 306 304 305 295 283 280 280 270 275 264 261 263 266 264 259 254 247 246 249 257 262 265 269 275 278 279 275 273 288 285 271 275 259 261 254 254 260
315 302 301 300 296 297 287 280 272 272 268 271 261 256 260 258 252 250 253 261 263 267 273 274 271 272 275 278 272 271 271 276 287 287 295 273 259 252
318 309 303 296 295 297 296 294 281 279 269 262 260 262 262 260 258 258 254 256 265 264 269 266 268 272 274 272 274 273 278 278 283 290 285 285 295 260
339 335 325 309 300 292 286 278 273 267 269 270 266 262 262 261 259 259 259 261 268 268 268 271 269 265 268 270 274 273 273 277 279 285 287 283 280 291
351 336 334 332 334 328 324 310 306 289 273 270 272 268 263 263 258 261 265 266 268 267 270 267 272 275 266 265 265 268 269 271 274 275 283 285 276 269
22 19 8 0 352 342 330 318 315 320 292 284 276 271 273 269 265 263 264 264 264 262 264 266 270 275 271 263 255 260 265 266 272 275 280 282 276 267
24 25 28 27 19 11 358 334 329 317 320 298 274 271 266 267 267 267 267 264 264 266 263 261 261 262 267 265 264 261 261 265 272 272 277 278 276 272
21 20 21 18 13 13 15 17 4 347 326 310 307 315 282 269 273 273 269 267 263 262 261 265 257 256 255 262 267 268 266 265 269 269 271 280 277 273
10 15 14 13 16 14 12 9 13 14 13 8 350 319 311 294 277 278 280 283 267 263 257 261 261 256 257 259 259 262 262 262 267 268 274 273 269 271
3 357 1 6 4 3 5 6 5 8 9 14 11 359 351 330 305 283 271 287 278 267 269 260 260 247 249 252 254 258 263 266 266 268 269 264 260 264
355 354 352 345 354 360 354 356 359 1 359 3 6 1 357 347 340 327 316 285 276 298 272 271 251 243 245 248 250 256 260 265 267 269 267 263 264 264